Location: Newark
(15.4608°S, 41.1635°W)
Time: 00:32:55
(UTC+00:00)

N. Korean satellite - Pass Details

Date: 26 June 2021
Orbit: 451 x 498 km, 97.2° (Epoch: 30 July)

Event Time Altitude Azimuth Distance (km) Brightness Sun altitude
Rises 08:15:19 0° 342° (NNW) 2,571 10.3 -13.3°
Reaches altitude 10° 08:17:53 10° 322° (NW) 1,694 9.1 -12.7°
Maximum altitude 08:20:25 18° 278° (W) 1,282 8.2 -12.1°
Enters shadow 08:21:03 17° 265° (W) 1,311 8.1 -12.0°
